EST,Max TemperatureF,Mean TemperatureF,Min TemperatureF,Max Dew PointF,MeanDew PointF,Min DewpointF,Max Humidity, Mean Humidity, Min Humidity, Max Sea Level PressureIn, Mean Sea Level PressureIn, Min Sea Level PressureIn, Max VisibilityMiles, Mean VisibilityMiles, Min VisibilityMiles, Max Wind SpeedMPH, Mean Wind SpeedMPH, Max Gust SpeedMPH,PrecipitationIn, CloudCover, Events, WindDirDegrees
2012-11-1,50,42,35,38,31,25,85,66,38,29.85,29.79,29.75,10,10,10,21,9,36,0.00,6,,303
2012-11-2,45,38,31,33,30,26,86,68,51,30.12,29.98,29.84,10,10,10,13,5,18,0.00,5,,324
2012-11-3,41,34,26,32,29,25,96,81,62,30.22,30.17,30.12,10,10,7,6,1,,0.00,3,,7
2012-11-4,41,34,26,32,29,23,93,78,56,30.21,30.19,30.16,10,10,7,6,1,,0.00,5,,23
2012-11-5,43,32,21,30,25,19,93,78,52,30.22,30.17,30.12,10,8,3,6,1,,0.00,0,,81
2012-11-6,46,34,22,31,27,20,93,72,52,30.13,30.02,29.94,10,8,3,12,3,17,0.00,3,,143
2012-11-7,48,40,30,32,30,27,89,72,47,30.15,30.04,29.94,10,9,5,9,4,,0.00,2,,53
2012-11-8,47,36,25,36,31,24,94,78,59,30.22,30.17,30.13,10,6,2,8,1,,0.00,5,,223
2012-11-9,58,44,31,45,37,30,96,73,47,30.16,30.10,30.04,10,6,1,14,3,,0.00,3,Rain,166
2012-11-10,52,52,51,44,44,43,76,73,68,30.09,30.03,29.96,10,10,10,18,7,26,0.00,4,Rain,165
2012-11-11,68,62,57,48,46,41,65,53,45,30.08,29.99,29.89,10,10,10,25,14,33,0.00,2,Rain,186
2012-11-12,62,48,33,47,29,21,91,70,50,30.28,30.07,29.90,10,9,3,21,12,30,0.00,7,Rain-Snow,253
2012-11-13,39,32,25,26,22,20,84,65,47,30.52,30.43,30.29,10,10,10,13,6,17,0.00,5,,280
2012-11-14,41,32,22,27,24,20,90,74,51,30.56,30.50,30.42,10,10,5,7,1,,0.00,0,,149
2012-11-15,44,34,23,32,27,21,92,81,54,30.42,30.37,30.33,10,6,1,5,1,,0.00,0,,174
2012-11-16,52,38,24,35,28,22,94,77,42,30.49,30.44,30.37,10,6,1,5,0,,0.00,0,,330
2012-11-17,54,40,25,34,29,24,94,70,40,30.58,30.53,30.49,10,7,2,8,1,,0.00,0,,141
2012-11-18,57,43,29,35,31,27,94,70,34,30.50,30.44,30.39,10,7,1,7,3,,0.00,0,,129
2012-11-19,54,42,31,36,32,28,93,76,47,30.38,30.28,30.15,10,8,4,6,1,,0.00,1,,166
2012-11-20,50,43,34,41,37,33,93,76,61,30.16,30.12,30.07,10,8,0,5,0,,0.00,7,Fog-Rain,171
2012-11-21,52,42,33,46,40,32,95,90,78,30.26,30.19,30.15,5,1,0,7,1,,0.00,6,Fog,188
2012-11-22,61,57,53,48,44,41,82,63,50,30.15,30.00,29.80,10,6,0,20,7,25,0.00,4,Fog-Rain,197
2012-11-23,54,43,32,48,29,22,86,72,65,30.09,29.93,29.77,10,9,2,29,17,38,0.00,8,Rain-Snow,278
2012-11-24,32,30,28,24,22,19,76,69,63,30.17,30.12,30.05,10,10,10,15,11,21,0.00,8,,283
2012-11-25,40,34,28,28,25,20,92,75,60,30.03,29.92,29.85,10,10,7,13,7,17,0.00,5,,229
2012-11-26,39,32,25,31,25,21,93,76,51,30.30,30.17,30.02,10,8,4,10,3,,0.00,7,,317
2012-11-27,37,30,23,24,20,17,85,64,48,30.38,30.30,30.25,10,10,7,9,1,,0.00,3,,246
2012-11-28,43,34,26,27,21,15,86,65,45,30.33,30.29,30.22,10,10,10,14,5,20,0.00,4,,236
2012-11-29,49,38,27,31,27,22,84,67,42,30.30,30.23,30.16,10,10,7,15,6,20,0.00,1,,193
2012-11-30,48,42,35,34,31,30,82,66,53,30.18,30.14,30.09,10,10,7,8,3,,0.00,5,,133